KBIL

Billings Logan International Airport

Airport
ICAO code
KBIL
Summary
ICAO Region
NAM
ICAO Territory
Location

Billings, Montana,

Coordinates
45° 48' 9" N , 108° 32' 8" W
KCC
Airport CFIT
Altimeter Temperature Error Correction
Airport LOS
Parallel Runway Operation
Airport RE
Hot and High Operations
Metar
Observation
KBIL 302053Z 24020G26KT 10SM FEW090 M16/M21 A3012 RMK AO2 PK WND 24032/1955 SLP285 ACSL DSNT SE-SW T11561211 56013
Station
Billings, Billings Logan International Airport
Date/Time
2023-01-30 20:53:00
Wind direction
240°
Wind speed
20 kts
Lowest cloud amount
few clouds
Temperature
-15.6°C
Dew point
-21.1°C
Humidity
62%
Weather condition
n/a

Description

Billings Logan International Airport is a public use airport located 4 km northwest of the central business district of Billings, in Yellowstone County, Montana.

Climatology

Cold Semi-arid climate (Köppen climate classification BSk). - Hot, sometimes extremely hot summers and cold, sometimes very cold winters. Some snowfall during the winter. Areas featuring cold semi-arid climates are sometimes subject to major temperature swings during a 24 hour period.

Airport map

Aerial View

SKYbrary Partners:

Safety knowledge contributed by: